Regional Weather Roundup
Issued by NWS Newport/Morehead, NC

Current Version | Previous Version | Graphics & Text | Print | Product List | Glossary Off
Versions: 1 2 3 4 5 6 7 8 9 10 11 12 13 14 15 16 17 18 19 20 21 22 23 24 25 26 27 28 29 30 31 32 33 34 35 36 37 38 39 40 41 42 43 44 45 46 47 48 49 50

000
ASUS42 KMHX 271625
RWRMHX
WEATHER ROUNDUP FOR EASTERN NORTH CAROLINA
NATIONAL WEATHER SERVICE NEWPORT/MOREHEAD CITY NC
1200 PM EDT WED MAY 27 2015

NOTE: "FAIR" INDICATES FEW OR NO CLOUDS BELOW 12,000 FEET
WITH NO SIGNIFICANT WEATHER AND/OR OBSTRUCTIONS TO VISIBILITY

NCZ015>017-031-032-045>047-102-103-271700-
NORTH COAST

CITY           SKY/WX    TMP DP  RH WIND       PRES   REMARKS
EDENTON          N/A     82  72  72 S10       30.26F
ELIZABETH CITY MOSUNNY   81  71  71 S10       30.26F
KITTY HAWK     SUNNY     79  66  63 S13       30.27S
MANTEO         PTSUNNY   78  65  66 S15       30.29S

$$

NCZ045>047-081-094-103-104-271700-
CENTRAL COAST

CITY           SKY/WX    TMP DP  RH WIND       PRES   REMARKS
FRISCO         CLOUDY    78  63  59 S10       30.31S
SWANQUARTER      N/A     79 N/A N/A S14       30.24F

$$

NCZ095-097-098-100-101-271700-
SOUTHERN COAST

CITY           SKY/WX    TMP DP  RH WIND       PRES   REMARKS
BEAUFORT       CLOUDY    77  67  71 S9        30.29F
CEDAR ISLAND     N/A     81 N/A N/A SE7G16    30.33S
JACKSONVILLE   MOSUNNY   83  68  60 SE14      30.27S
PINEY ISLAND   PTSUNNY  N/A N/A N/A S10       30.29S
WILMINGTON     PTSUNNY   81  67  62 S8        30.26F


$$

NCZ011>013-027>030-043-044-078>080-089-090>093-098-271700-
COASTAL PLAIN

CITY           SKY/WX    TMP DP  RH WIND       PRES   REMARKS
AHOSKIE        MOSUNNY   80  69  70 S3        30.25F
CLINTON        SUNNY     81  73  77 CALM      30.26F
ELIZABETHTOWN  PTSUNNY   81  69  65 S6        30.26S
GOLDSBORO      PTSUNNY   83  70  65 SW12      30.23F
GREENVILLE     MOSUNNY   82  72  69 S10       30.26F
HAVELOCK       PTSUNNY   80  67  64 S12       30.29F
KENANSVILLE    MOSUNNY   83  68  59 SW3       30.27F
KINSTON        MOSUNNY   84  70  61 W7        30.26F
NEW BERN       PTSUNNY   83  68  60 SE10      30.28F
RICHLANDS      MOSUNNY   82  70  65 SW7       30.26F
ROCKY MOUNT    MOSUNNY   84  70  62 S10       30.25F
WASHINGTON     MOSUNNY   81  70  68 S8        30.26F
WHITEVILLE     PTSUNNY   83  67  59 S8        30.26S

$$

AMZ130-135-150-152-154-156-158-170-250-252-270-ANZ085-086-088-633-658-670-271700-
MARINE OBSERVATIONS

STATION/POSITION TIME  TEMP    WIND        PRES    WAVE   SWELL
                       AIR SEA DIR/SP/G            HT/PER HT/PER
                 (UTC) (F)     (DEG/KT/KT) (MB)    (FT/S) (FT/S)
CHESAPEAKE LIGHT 1600   69     170/ 27/ 27 1024.0
64 E VA BEACH    1550   67 63  160/ 10/ 12 1025.4    3/ 5   2/ 5
DUCK             1600   77 56  180/ 14/ 16 1024.0
2 E DUCK         1511      63                N/A     2/ 5
OREGON INLET     1600   75 76  180/ 12/ 15 1025.8
13E OREGON INLT  1600      70                N/A     2/ 5
HATTERAS CG      1600   78 74  160/  9/ 11 1025.7
DIAMOND BUOY     1550   75 77  160/ 10/ 12 1026.5    3/ 6   2/ 6
CAPE LOOKOUT     1600   75     150/  8/  9 1025.7
BEAUFORT LAB     1600   76 75  170/  9/ 11 1025.0
27 SE WRIGHTSVLE 1600   74 76  200/  4/  6   N/A
5 SE WRIGHTSVLE  1508   77 77  190/  8/ 10 1025.5
225 S CAPE HAT   1550   73 74  110/ 14/ 16 1026.0    4/ 7   3/ 7
41 SE CHARLESTON 1550   77 77  100/  6/  8 1024.8    3/ 7   3/ 7

$$


USA.gov is the U.S. government's official web portal to all federal, state and local government web resources and services.